Probability
0 0 0 0 0 0 0 0 0 0 0 0 0 0 0 1 1 1 0 0 1 2 2 1 2 6 17 40 69 88 96 93 70 46 51 59 50 34 16 3 0 0 0 0
0 0 0 0 0 0 0 0 0 0 0 0 0 0 0 3 5 5 5 8 13 18 20 19 19 21 26 39 57 77 88 89 75 58 62 73 70 54 34 17 8 2 1 0
0 0 0 0 0 0 0 0 0 0 0 0 0 0 1 4 8 10 12 17 23 30 35 37 38 40 40 43 54 69 80 85 80 75 78 84 82 73 61 45 26 14 7 3
0 0 0 0 0 0 0 0 0 0 0 0 0 0 1 3 5 7 10 12 14 17 22 25 28 32 34 38 45 56 66 75 78 81 84 82 74 66 62 53 36 24 14 6
0 0 0 0 0 0 0 0 0 0 0 0 0 0 0 0 1 1 2 2 1 1 3 4 6 9 12 15 19 25 35 46 54 59 62 60 51 40 35 31 24 18 12 6
0 0 0 0 0 0 0 0 0 0 0 0 0 0 0 0 0 0 0 0 0 0 0 0 0 0 0 0 1 3 8 14 18 21 23 24 21 16 13 9 7 6 4 2
0 0 0 0 0 0 0 0 0 0 0 0 0 0 0 0 0 0 0 0 0 0 0 0 0 0 0 0 0 0 0 0 0 1 1 2 3 3 2 1 1 1 1 1
0 0 0 0 0 0 0 0 0 0 0 0 0 0 0 0 0 0 0 0 0 0 0 0 0 0 0 0 0 0 0 0 0 0 0 0 0 0 0 0 0 0 0 0
0 0 0 0 0 0 0 0 0 0 0 0 0 0 0 0 0 0 0 0 0 0 0 0 0 0 0 0 0 0 0 0 0 0 0 0 0 0 0 0 0 0 0 0
0 0 0 0 0 0 0 0 0 0 0 0 0 0 0 0 0 0 0 0 0 0 0 0 0 0 0 0 0 0 0 0 0 0 0 0 0 0 0 0 0 0 0 0
0 0 0 0 0 0 0 0 0 0 0 0 0 0 0 0 0 0 0 0 0 0 0 0 0 0 0 0 0 0 0 0 0 0 0 0 0 0 0 0 0 0 0 0
0 0 0 0 0 0 0 0 0 0 0 0 0 0 0 0 0 0 0 0 0 0 0 0 0 0 0 0 0 0 0 0 0 0 0 0 0 0 0 0 0 0 0 0
0 0 0 0 0 0 0 0 0 0 0 0 0 0 0 0 0 0 0 0 0 0 0 0 0 0 0 0 0 0 0 0 0 0 0 0 0 0 0 0 0 0 0 0
0 0 0 0 0 0 0 0 0 0 0 0 0 0 0 0 0 0 0 0 0 0 0 0 0 0 0 0 0 0 0 0 0 0 0 0 0 0 0 0 0 0 0 0
0 0 0 0 0 0 0 0 0 0 0 0 0 0 0 0 0 0 0 0 0 0 0 0 0 0 0 0 0 0 0 0 0 0 0 0 0 0 0 0 0 0 0 0
0 0 0 0 0 0 0 0 0 0 0 0 0 0 0 0 0 0 0 0 0 0 0 0 0 0 0 0 0 0 0 0 0 0 0 0 0 0 0 0 0 0 0 0
0 0 0 0 0 0 0 0 0 0 0 0 0 0 0 0 0 0 0 0 0 0 0 0 0 0 0 0 0 0 0 0 0 0 0 0 0 0 0 0 0 0 0 0
0 0 0 0 0 0 0 0 0 0 0 0 0 0 0 0 0 0 0 0 0 0 0 0 0 0 0 0 0 0 0 0 0 0 0 0 0 0 0 0 0 0 0 0
0 0 0 0 0 0 0 0 0 0 0 0 0 0 0 0 0 0 0 0 0 0 0 0 0 0 0 0 0 0 0 0 0 0 0 0 0 0 0 0 0 0 0 0
0 0 0 0 0 0 0 0 0 0 0 0 0 0 0 0 0 0 0 0 0 0 0 0 0 0 0 0 0 0 0 0 0 0 0 0 0 0 0 0 0 0 0 0
0 0 0 0 0 0 0 0 0 0 0 0 0 0 0 0 0 0 0 0 0 0 0 0 0 0 0 0 0 0 0 0 0 0 0 0 0 0 0 0 0 0 0 0
0 0 0 0 0 0 0 0 0 0 0 0 0 0 0 0 0 0 0 0 0 0 0 0 0 0 0 0 0 0 0 0 0 0 0 0 0 0 0 0 0 0 0 0
0 0 0 0 0 0 0 0 0 0 0 0 0 0 0 0 0 0 0 0 0 0 0 0 0 0 0 0 0 0 0 0 0 0 0 0 0 0 0 0 0 0 0 0
0 0 0 0 0 0 0 0 0 0 0 0 0 0 0 0 0 0 0 0 0 0 0 0 0 0 0 0 0 0 0 0 0 0 0 0 0 0 0 0 0 0 0 0
0 0 0 0 0 0 0 0 0 0 0 0 0 0 0 0 0 0 0 0 0 0 0 0 0 0 0 0 0 0 0 0 0 0 0 0 0 0 0 0 0 0 0 0
0 0 0 0 0 0 0 0 0 0 0 0 0 0 0 0 0 0 0 0 0 0 0 0 0 0 0 0 0 0 0 0 0 0 0 0 0 0 0 0 0 0 0 0
0 0 0 0 0 0 0 0 0 0 0 0 0 0 0 0 0 0 0 0 0 0 0 0 0 0 0 0 0 0 0 0 0 0 0 0 0 0 0 0 0 0 0 0
Wind_Speed
14 12 9 8 8 11 14 11 7 9 11 18 20 20 17 14 10 6 5 5 3 1 1 2 3 4 4 4 6 8 8 7 6 5 5 6 6 6 6 6 6 6 5 5
16 15 10 11 18 15 14 15 12 11 10 17 20 19 16 14 10 5 3 3 4 3 3 1 1 2 3 2 3 5 7 7 6 5 3 4 4 6 6 6 5 5 4 4
12 15 8 11 15 14 11 13 12 11 13 20 23 20 16 14 14 11 10 10 9 9 8 9 9 7 5 2 2 2 3 3 4 3 2 2 3 4 5 5 5 5 5 5
9 11 6 7 7 11 8 8 14 14 17 20 21 16 12 15 15 15 14 12 10 10 10 10 9 8 8 8 8 8 7 6 3 1 1 2 4 4 4 4 4 5 5 5
6 6 5 7 9 10 6 4 12 16 19 21 21 11 11 16 13 13 12 10 10 9 9 10 10 9 9 9 9 8 7 7 7 7 5 5 4 5 5 4 4 4 4 5
6 6 5 4 10 10 5 3 12 17 18 20 22 14 13 15 10 9 9 7 8 8 8 8 9 9 9 8 7 7 7 7 7 7 7 6 6 5 4 4 4 3 2 3
7 5 5 5 10 8 4 6 15 17 17 17 18 15 16 14 7 5 5 6 6 7 6 6 7 8 8 7 6 5 5 5 5 5 4 5 5 4 4 3 3 3 2 1
8 7 4 9 9 7 6 9 12 14 15 17 18 18 18 15 6 5 5 5 5 5 4 5 6 5 6 4 3 3 3 4 3 4 5 4 4 4 4 3 3 2 2 2
5 4 5 7 6 6 8 11 12 13 15 17 17 16 18 15 6 4 3 4 3 2 3 4 5 5 4 2 2 3 4 3 3 3 4 3 3 3 3 3 3 3 3 3
5 4 7 7 9 11 12 13 13 14 16 16 15 16 15 12 7 2 4 4 1 0 3 3 3 3 4 3 3 3 4 2 3 4 4 4 4 5 5 6 5 5 4 4
4 6 8 8 12 13 14 15 15 15 15 14 15 15 13 10 7 3 4 3 1 3 3 1 2 4 4 4 5 3 3 3 4 4 3 3 4 4 4 5 4 4 3 4
3 4 5 9 10 13 13 15 16 17 16 15 15 14 11 9 7 3 2 2 2 1 2 3 3 4 5 3 5 5 3 4 3 2 2 1 2 3 6 6 6 7 5 4
5 5 6 8 10 11 11 14 15 15 15 15 14 12 11 9 7 4 2 1 2 4 4 3 2 3 4 2 3 4 3 3 2 2 1 0 1 1 3 3 4 5 7 8
6 7 7 6 7 9 10 12 13 13 13 13 12 11 10 9 8 7 4 3 3 4 4 4 2 1 2 1 1 3 2 2 1 2 2 2 2 2 2 2 2 2 4 7
4 6 8 7 7 9 10 11 12 11 13 13 12 11 9 9 8 8 7 6 4 4 5 5 4 2 3 1 2 3 2 3 3 2 2 2 2 3 3 2 2 2 2 1
4 6 7 8 9 10 11 12 13 12 13 14 13 12 12 10 9 9 8 6 5 5 5 5 5 3 5 3 2 1 3 4 2 2 2 2 2 2 2 1 1 2 2 1
5 6 7 9 10 10 11 11 12 12 12 13 14 13 13 11 9 8 7 5 5 5 5 5 4 4 5 3 3 2 2 4 1 2 1 2 2 2 2 2 3 3 3 3
4 6 7 9 9 10 11 11 11 12 12 13 13 13 12 12 11 10 10 7 5 5 6 5 3 6 5 4 3 2 2 4 3 1 2 3 3 2 2 2 4 4 3 2
5 7 7 8 8 9 9 10 10 11 11 12 13 12 12 11 11 11 10 8 6 5 5 6 6 6 6 4 2 1 1 3 3 2 2 1 1 2 2 3 4 4 4 3
6 7 7 8 8 8 9 10 10 9 9 11 12 12 11 12 12 12 11 8 6 5 5 3 7 5 5 6 3 2 2 4 3 2 2 2 2 3 3 3 4 4 3 3
6 6 7 7 7 8 9 10 9 9 8 9 11 12 11 11 11 10 9 7 7 5 1 4 4 4 4 7 4 2 3 4 2 2 3 2 3 3 3 3 4 4 4 3
7 6 5 6 6 7 7 8 9 9 7 8 10 12 11 10 11 10 9 7 4 1 1 2 2 5 9 9 3 2 4 4 3 2 2 3 3 3 3 4 4 4 3 3
6 5 5 6 6 8 8 8 8 7 7 8 10 11 11 9 8 8 8 5 4 1 2 2 4 13 13 6 3 4 4 4 3 2 2 3 3 3 4 5 4 3 3 3
6 6 6 6 7 8 8 7 7 7 6 7 7 8 9 8 8 7 7 7 5 2 3 2 13 15 11 4 3 4 4 4 3 2 4 4 3 4 5 4 3 3 3 4
7 7 7 7 6 5 6 6 7 6 6 5 7 8 7 7 8 8 8 8 4 3 2 5 11 12 7 3 4 4 5 4 4 3 4 4 4 4 5 4 4 4 3 3
7 5 4 5 5 3 4 4 3 4 5 5 5 5 6 7 9 8 6 7 5 2 2 4 5 7 5 3 4 5 5 6 5 4 5 5 5 5 4 4 4 4 4 3
7 6 4 5 5 5 4 3 3 3 4 5 6 6 7 8 8 8 8 6 3 3 3 4 5 5 4 3 4 5 5 5 4 4 4 4 4 4 4 4 3 4 4 4
Wind_Direction
312 300 276 279 341 28 37 29 34 13 7 1 348 335 319 309 303 290 289 298 310 292 195 181 208 216 208 203 190 174 172 185 198 224 195 184 184 174 189 202 203 206 203 184
314 308 299 48 31 33 41 34 35 29 14 345 336 333 338 341 344 343 354 9 20 27 34 25 154 164 150 166 188 167 169 185 192 219 212 183 184 180 196 200 208 205 195 185
320 317 296 62 18 14 32 31 28 24 351 340 346 348 351 0 12 27 43 49 44 41 40 44 47 49 60 51 105 121 148 169 174 188 213 214 225 215 204 198 200 210 203 201
322 341 54 65 9 2 0 25 27 5 350 347 344 322 356 19 23 34 42 42 42 45 43 49 53 54 51 42 39 36 34 28 29 48 289 279 273 267 247 230 214 209 214 215
338 343 76 26 356 342 324 317 22 358 345 344 337 329 10 16 29 26 30 33 36 39 43 39 36 41 52 54 48 40 30 31 31 32 21 5 342 315 301 291 282 253 229 221
354 358 46 9 336 324 260 244 7 346 337 340 343 357 353 349 25 30 20 25 38 36 38 48 45 42 47 47 45 37 28 33 35 38 35 23 6 357 348 338 320 305 266 234
358 23 86 11 349 349 29 322 322 323 328 336 340 335 325 333 14 44 32 22 48 46 33 45 62 60 49 42 41 36 32 39 39 29 28 28 0 356 357 353 341 335 322 298
360 17 21 9 357 7 325 305 310 317 323 326 327 326 327 330 1 43 48 40 48 54 44 40 46 69 71 41 29 50 47 40 44 55 36 19 7 4 4 9 15 16 3 341
347 347 347 353 4 347 321 316 319 319 316 319 323 325 324 325 342 61 58 69 57 62 65 65 54 44 63 43 348 73 62 54 42 67 75 26 6 359 358 7 15 23 26 14
324 338 358 24 12 346 335 325 319 313 312 319 322 321 318 319 326 79 79 80 353 25 75 64 65 65 51 10 334 88 93 63 70 63 61 45 27 20 31 31 25 26 23 11
317 1 356 353 343 331 322 317 317 315 313 317 316 314 315 321 335 46 103 124 291 35 35 0 69 79 69 16 342 358 96 83 78 80 77 67 69 49 42 57 37 22 12 357
345 13 319 305 312 315 311 314 316 316 318 319 312 311 322 331 334 356 58 126 141 107 298 313 41 70 85 35 350 357 46 60 62 85 90 101 127 116 66 70 61 51 32 5
289 293 276 281 298 308 309 311 313 314 314 311 312 323 331 328 324 340 350 297 190 186 232 279 349 54 95 78 2 341 23 47 45 52 84 200 219 180 150 111 80 53 30 24
278 296 306 313 308 311 314 316 316 319 319 317 319 322 322 322 331 337 319 280 231 211 226 250 268 85 101 77 315 311 33 94 36 23 359 340 349 45 87 129 135 105 43 34
281 312 318 323 318 322 328 329 332 338 335 329 324 322 322 323 325 322 310 291 244 225 234 243 245 196 151 194 291 319 23 50 57 35 340 330 38 73 82 88 113 141 141 40
300 308 322 331 332 334 338 337 336 341 338 330 330 329 325 316 307 299 288 278 254 239 240 241 241 196 159 178 234 273 101 88 39 346 327 4 66 95 94 74 60 95 107 83
279 307 325 326 329 331 332 331 329 332 332 328 330 328 321 315 310 308 303 276 249 243 245 243 233 166 147 180 214 231 155 132 145 301 343 24 66 87 83 86 85 80 76 42
267 300 304 310 319 323 322 323 324 326 326 326 329 330 327 323 321 317 310 299 267 245 239 240 203 143 151 192 220 241 161 143 160 128 44 30 32 81 52 69 104 100 101 79
264 282 292 302 311 313 316 318 319 320 323 328 330 328 325 320 316 314 313 316 308 286 256 218 182 160 163 176 189 184 237 121 122 114 115 72 15 88 75 53 70 88 90 77
256 276 288 297 304 310 312 311 312 314 322 329 327 326 328 327 323 318 315 311 294 274 279 216 158 167 169 150 163 217 153 113 122 134 126 98 79 80 81 74 69 74 82 81
248 265 279 291 302 306 305 309 312 313 325 328 326 324 324 324 319 314 310 304 299 298 333 129 149 162 151 137 170 215 119 114 126 124 135 131 115 105 97 92 84 76 68 65
236 254 274 291 298 303 310 314 311 316 330 327 324 323 323 324 323 317 309 296 303 51 115 168 187 151 134 137 171 148 118 122 119 107 117 128 133 133 118 103 94 89 81 70
237 258 274 288 301 308 309 307 313 324 328 325 322 321 321 317 311 306 307 319 347 343 277 241 160 137 138 153 171 142 137 139 140 141 124 110 110 105 99 97 94 92 83 73
233 250 265 278 286 294 301 314 322 316 318 320 314 315 320 320 316 311 315 322 326 297 292 185 149 149 152 181 170 148 146 143 144 139 123 120 113 106 103 104 103 93 85 78
230 241 251 260 274 285 299 310 310 311 316 312 312 318 326 321 311 307 302 303 294 265 242 170 170 162 167 200 166 150 142 142 139 123 113 113 111 113 118 123 120 112 102 92
234 237 241 253 261 272 279 280 288 305 309 310 311 319 322 315 307 303 296 294 292 247 225 152 179 180 201 203 154 142 134 135 136 130 126 124 122 120 121 125 132 129 124 119
240 237 231 239 243 244 254 266 281 294 302 305 312 316 312 310 311 312 310 304 285 217 191 166 186 193 210 165 140 140 140 143 147 142 136 134 134 134 140 147 142 124 119 115